パンスターズ彗星

P/2019 A1 ( PanSTARRS )

English version
Home page
Updated on January 8, 2019

---------------------------------------------------------------------

・ プロフィール

発見日 2019年1月3日
発見光度 20.5等
発見者 Pan-STARRS 1 telescope (Haleakala)

・ 軌道要素

Epoch 2018 Oct. 9.0 TT = JDT 2458400.5
T 2018 Oct. 11.06428 TT                                 MPCW
q   2.2117223            (2000.0)            P               Q
n   0.08482728     Peri.  150.85550     -0.23790215     -0.95526199
a   5.1299410      Node   312.29967     +0.83877132     -0.11083088
e   0.5688601      Incl.   13.74346     +0.48976039     -0.27420984
P  11.62
From 23 observations 2018 Dec. 4-2019 Jan. 7, mean residual 0".3.

・ 光度変化

        m1 = 15.8 + 5 logΔ + 10.0 log r

---------------------------------------------------------------------

軌道要素はM.P.E.C. 2019-A101に掲載されたものです。
光度グラフはComet for Windowsで作成したものです。

---------------------------------------------------------------------

Copyright(C) Seiichi Yoshida (comet@aerith.net). All rights reserved.